[[{"header":{"parameterUnit":"m.s-1","parameterCategory":1,"la1":30.2991,"la2":30.254,"lo1":-89.0895,"lo2":-89.0444,"dy":0.0017,"dx":0.0017,"nx":28,"ny":28,"refTime":"2023-10-01T21:00:00:Z","depth":0,"parameterNumber":2,"parameterNumberName":"U-component_of_WINDS"},"data":[0,0,0,0,0,0,0,0,0,0,0,0,0,0,0,0,0,0,0,0,0,0,0,0,0,0,0,0,0,0,0,0,0,0,0,0,0,0,0,0,0,0,0,0,0,0,0,0,0,0,0,0,0,0,0,0,0,0,-5.8577,-5.8577,0,-5.8571,-5.8571,-5.8571,-5.846,-5.8457,-5.8455,-5.8452,-5.8449,-5.8451,-5.8454,0,0,0,0,0,0,0,0,0,0,0,0,0,-5.8496,-5.8498,-5.8577,-5.8577,-5.8576,-5.8571,-5.8571,-5.8571,-5.8461,-5.8457,-5.8454,-5.8451,-5.8448,-5.8451,-5.8454,0,0,0,0,0,0,0,0,0,0,0,0,0,-5.8515,-5.8498,-5.8577,-5.8521,-5.8516,-5.8571,-5.8571,-5.8571,-5.8462,-5.8457,-5.8453,-5.8449,-5.8447,-5.8451,-5.8454,-5.8564,0,0,-5.8466,-5.8468,0,0,0,0,0,0,0,0,-5.8514,-5.8518,-5.8529,-5.8525,-5.8519,-5.8512,-5.8541,-5.8569,-5.8463,-5.8482,-5.8452,-5.8447,-5.8473,-5.8475,-5.8483,-5.8563,-5.8563,-5.8467,-5.8469,-5.847,-5.8472,0,0,0,0,0,0,0,-5.8513,-5.8517,-5.8574,-5.8529,-5.8523,-5.8497,-5.8495,-5.8546,-5.8502,-5.848,-5.8472,-5.8473,-5.847,-5.848,-5.8482,-5.8563,-5.8466,-5.847,-5.8472,-5.8474,-5.8737,-5.8741,0,0,0,0,0,0,-5.8519,-5.8517,-5.8575,-5.8574,-5.8506,-5.8502,-5.85,-5.8519,-5.8501,-5.8494,-5.8477,-5.8468,-5.8475,-5.8478,-5.8482,-5.8611,-5.847,-5.8474,-5.8476,-5.8732,-5.8738,-5.8743,0,0,0,0,0,0,-5.8517,-5.8525,-5.8575,-5.8544,-5.8548,-5.8508,-5.853,-5.8521,-5.853,-5.8498,-5.849,-5.8494,-5.8472,-5.8476,-5.8545,-5.8609,-5.8476,-5.8479,-5.8726,-5.8734,-5.874,-5.8868,0,0,0,0,0,0,-5.8515,-5.8525,-5.8565,-5.8545,-5.855,-5.8637,-5.8534,-5.8524,-5.8537,-5.8526,-5.8513,-5.8507,-5.8469,-5.854,-5.8549,-5.8612,-5.8482,-5.872,-5.873,-5.8738,-5.8858,-5.8879,-5.8896,0,0,0,0,0,-5.8513,-5.8601,-5.8567,-5.8575,-5.8599,-5.8641,-5.8644,-5.8598,-5.8543,-5.8583,-5.8563,-5.8507,-5.86,-5.8547,-5.8557,-5.8622,-5.8716,-5.8727,-5.8737,-5.8849,-5.8875,-5.8896,0,0,0,0,0,0,-5.8629,-5.8597,-5.856,-5.8643,-5.8646,-5.8622,-5.8671,-5.8625,-5.8643,-5.8632,-5.8575,-5.8573,-5.8651,-5.8643,-5.8585,-5.8729,-5.8649,-5.8662,-5.8731,-5.8755,-5.8773,-5.8774,-5.8486,0,0,0,0,0,-5.8664,-5.87,-5.867,-5.8747,-5.875,-5.8712,-5.8728,-5.8693,-5.8693,-5.8693,-5.8678,-5.8681,-5.8711,-5.8732,-5.8758,-5.8856,-5.8854,-5.8906,-5.8925,-5.8941,-5.8953,-5.9008,-5.9032,-5.8777,-5.8777,-5.8777,0,0,-5.8737,-5.8724,-5.875,-5.8771,-5.8768,-5.8808,-5.8713,-5.8758,-5.8788,-5.87,-5.8764,-5.8754,-5.8754,-5.8838,-5.8875,-5.8834,-5.9023,-5.8955,-5.8968,-5.8971,-5.9021,-5.9045,-5.9067,-5.8784,-5.8783,-5.8782,0,0,-5.8891,-5.8884,-5.8949,-5.8949,-5.8947,-5.8921,-5.8937,-5.8921,-5.891,-5.8973,-5.891,-5.8945,-5.8997,-5.9001,-5.901,-5.9169,-5.9119,-5.9179,-5.928,-5.9333,-5.9353,-5.9371,-5.943,-5.9452,-5.9191,-5.9192,-5.9192,0,-5.8983,-5.9039,-5.8988,-5.9039,-5.9051,-5.8974,-5.904,-5.9043,-5.905,-5.9061,-5.9015,-5.9081,-5.9076,-5.9162,-5.9201,-5.921,-5.9228,-5.918,-5.9354,-5.9372,-5.9387,-5.9443,-5.9465,-5.9199,-5.9198,-5.9197,-5.9197,0,-5.9153,-5.9194,-5.9246,-5.9255,-5.9273,-5.9331,-5.9291,-5.9316,-5.928,-5.926,-5.9327,-5.9318,-5.9342,-5.936,-5.9325,-5.9442,-5.9417,-5.9364,-5.9283,-5.942,-5.9471,-5.9492,-5.921,-5.9207,-5.9205,-5.9203,0,0,-5.9378,-5.936,-5.9381,-5.9385,-5.9378,-5.9409,-5.9466,-5.9489,-5.9513,-5.9521,-5.9568,-5.9616,-5.9567,-5.9578,-5.9543,-5.959,-5.972,-5.9531,-5.953,-5.9568,-5.9852,-5.9893,-5.9919,-5.9687,-5.9691,-5.9694,-5.9853,0,-5.9528,-5.9622,-5.958,-5.9679,-5.9717,-5.9647,-5.9696,-5.9699,-5.9682,-5.9713,-5.9695,-5.9731,-5.9663,-5.9669,-5.9712,-5.9695,-5.9777,-5.9683,-5.9733,-5.9735,-5.9736,-5.9945,-5.9988,-6.0138,-5.9872,-5.9876,-5.9878,0,-5.9715,-5.9732,-5.9836,-5.9825,-5.984,-5.9885,-5.9904,-5.9934,-5.9937,-5.9922,-5.9935,-5.9891,-5.9948,-5.9867,-5.9946,-5.9883,-5.9901,-5.9897,-5.9901,-5.9905,-5.9815,-5.9956,-6.0184,-6.0207,-5.9909,-5.9906,-5.9904,0,-5.9872,-5.992,-5.9989,-5.9995,-5.9983,-6.0017,-6.0015,-6.0013,-6.0031,-6.0049,-6.006,-6.0085,-6.0099,-6.012,-6.0084,-6.0028,-6.017,-6.0085,-6.016,-6.0162,-6.0193,-6.0192,-6.0429,-6.0203,-6.0203,-6.0203,-6.0202,0,-6.0045,-6.0111,-6.006,-6.0102,-6.0176,-6.0127,-6.0202,-6.0191,-6.0191,-6.0232,-6.0172,-6.0212,-6.0162,-6.0198,-6.0171,-6.0242,-6.0248,-6.0239,-6.0231,-6.0245,-6.0247,-6.0256,-6.0246,-6.0209,-6.0207,-6.0206,-6.0205,0,-6.0231,-6.0199,-6.027,-6.0254,-6.0252,-6.0307,-6.0295,-6.0334,-6.0314,-6.0367,-6.0377,-6.0346,-6.0385,-6.0352,-6.039,-6.0372,-6.0467,-6.0444,-6.0466,-6.046,-6.0538,-6.0532,-6.0791,-6.0823,-6.0576,-6.0578,-6.058,0,-6.0344,-6.0394,-6.0384,-6.0407,-6.0408,-6.0446,-6.0464,-6.042,-6.0442,-6.045,-6.049,-6.0524,-6.0549,-6.0616,-6.0598,-6.0628,-6.0606,-6.0695,-6.061,-6.0623,-6.0609,-6.0608,-6.0613,-6.0712,-6.0715,-6.0717,-6.0719,0,-6.0548,-6.0531,-6.0559,-6.0584,-6.0607,-6.0624,-6.0636,-6.0659,-6.0614,-6.0642,-6.0682,-6.0701,-6.0741,-6.0777,-6.0801,-6.08,-6.0754,-6.0746,-6.0766,-6.0781,-6.0792,-6.0789,-6.0515,-6.0741,-6.0738,-6.0737,-6.0736,-6.0735,-6.0702,-6.0744,-6.0745,-6.078,-6.0785,-6.0799,-6.0836,-6.0822,-6.0853,-6.0882,-6.0854,-6.0903,-6.0908,-6.0936,-6.0941,-6.098,-6.0943,-6.097,-6.0977,-6.0985,-6.0997,-6.0786,-6.0984,-6.0983,-6.0982,-6.0982,-6.0981,0,-6.0905,-6.0903,-6.0935,-6.0955,-6.0983,-6.0936,-6.0949,-6.0976,-6.1019,-6.1027,-6.1054,-6.1101,-6.1137,-6.1123,-6.1154,-6.1189,-6.1168,-6.1199,-6.1196,-6.1197,-6.1027,-6.1008,-6.1215,-6.1215,-6.1215,-6.1215,-6.1215,-6.1214,-6.1014,-6.1083,-6.1067,-6.1139,-6.1136,-6.1183,-6.1195,-6.1208,-6.1215,-6.127,-6.1299,-6.129,-6.129,-6.1322,-6.1353,-6.1348,-6.1364,-6.1402,-6.139,-6.1232,-6.1209,-6.1187,-6.1169,-6.1406,-6.1406,-6.1557,-6.1558,-6.1559]},{"header":{"parameterUnit":"m.s-1","parameterCategory":1,"la1":30.2991,"la2":30.254,"lo1":-89.0895,"lo2":-89.0444,"dy":0.0017,"dx":0.0017,"nx":28,"ny":28,"refTime":"2023-10-01T21:00:00:Z","depth":0,"parameterNumber":3,"parameterNumberName":"V-component_of_WINDS"},"data":[0,0,0,0,0,0,0,0,0,0,0,0,0,0,0,0,0,0,0,0,0,0,0,0,0,0,0,0,0,0,0,0,0,0,0,0,0,0,0,0,0,0,0,0,0,0,0,0,0,0,0,0,0,0,0,0,0,0,0.0891,0.0892,0,0.0925,0.0926,0.0926,0.101,0.1012,0.1014,0.1015,0.1045,0.1044,0.1043,0,0,0,0,0,0,0,0,0,0,0,0,0,0.0894,0.0893,0.0891,0.0892,0.0892,0.0925,0.0926,0.0926,0.101,0.1012,0.1014,0.1016,0.1045,0.1044,0.1043,0,0,0,0,0,0,0,0,0,0,0,0,0,0.0907,0.0893,0.0891,0.0938,0.0942,0.0925,0.0926,0.0926,0.1009,0.1012,0.1015,0.1017,0.1046,0.1044,0.1043,0.0982,0,0,0.1039,0.1038,0,0,0,0,0,0,0,0,0.0906,0.0906,0.0931,0.0935,0.094,0.0966,0.0938,0.0945,0.1009,0.0984,0.1015,0.1018,0.1016,0.1018,0.1018,0.0983,0.0984,0.1039,0.1038,0.1038,0.1037,0,0,0,0,0,0,0,0.0905,0.0905,0.0905,0.0931,0.0936,0.0956,0.096,0.0939,0.0984,0.0986,0.0992,0.0995,0.1019,0.1019,0.1019,0.0985,0.1039,0.1038,0.1037,0.1036,0.09,0.0897,0,0,0,0,0,0,0.0898,0.0904,0.0904,0.0906,0.0929,0.0954,0.0959,0.0955,0.0985,0.0992,0.0993,0.0999,0.102,0.1021,0.1021,0.0949,0.1038,0.1036,0.1036,0.0903,0.0899,0.0896,0,0,0,0,0,0,0.0898,0.0897,0.0902,0.0907,0.0909,0.0951,0.0946,0.0954,0.0954,0.099,0.0998,0.0985,0.1022,0.1022,0.0991,0.0951,0.1036,0.1035,0.0906,0.0902,0.0898,0.0806,0,0,0,0,0,0,0.0897,0.0896,0.0874,0.0906,0.0908,0.0872,0.0943,0.0953,0.0952,0.096,0.0985,0.0991,0.1024,0.0992,0.0989,0.0951,0.1034,0.091,0.0904,0.0899,0.0812,0.0799,0.0787,0,0,0,0,0,0.0897,0.0846,0.0873,0.0872,0.0882,0.087,0.0871,0.0912,0.0949,0.0926,0.095,0.099,0.0957,0.0988,0.0986,0.0946,0.0912,0.0906,0.09,0.0818,0.0801,0.0787,0,0,0,0,0,0,0.0807,0.0851,0.0881,0.0839,0.085,0.0884,0.0857,0.0893,0.0893,0.0901,0.095,0.0954,0.0915,0.0929,0.0963,0.0888,0.0941,0.0934,0.088,0.0865,0.0852,0.0848,0.1032,0,0,0,0,0,0.0783,0.0771,0.081,0.0769,0.0773,0.0814,0.081,0.0841,0.0854,0.0859,0.088,0.089,0.0881,0.0874,0.0869,0.0816,0.0821,0.0788,0.0775,0.0765,0.0756,0.0727,0.0712,0.0875,0.0875,0.0875,0,0,0.0731,0.0754,0.0743,0.0751,0.0764,0.0749,0.0817,0.0799,0.0787,0.0855,0.0826,0.0843,0.0857,0.0814,0.0796,0.0823,0.0713,0.0757,0.0748,0.0745,0.0719,0.0704,0.069,0.0871,0.0872,0.0872,0,0,0.0628,0.0646,0.0613,0.0625,0.0644,0.0671,0.0663,0.0693,0.0706,0.0679,0.0729,0.0716,0.0702,0.0709,0.0711,0.0613,0.065,0.0611,0.0543,0.0514,0.0501,0.049,0.0452,0.0438,0.0603,0.0603,0.0603,0,0.0561,0.0542,0.0591,0.0569,0.057,0.0634,0.06,0.0609,0.0624,0.0622,0.0654,0.0636,0.0651,0.0609,0.0586,0.0586,0.0577,0.0606,0.0499,0.0489,0.0479,0.0443,0.0429,0.0598,0.0598,0.0599,0.0599,0,0.0457,0.0443,0.0414,0.0429,0.0427,0.0399,0.0442,0.0435,0.0467,0.049,0.0461,0.0481,0.048,0.0473,0.0503,0.0436,0.0452,0.0491,0.0545,0.0457,0.0424,0.0411,0.059,0.0592,0.0594,0.0595,0,0,0.0294,0.0339,0.0326,0.0333,0.036,0.0349,0.0325,0.0325,0.0317,0.0326,0.0304,0.0291,0.0328,0.033,0.0362,0.0337,0.0255,0.0379,0.038,0.0352,0.0178,0.0146,0.0129,0.0282,0.0279,0.0278,0.0176,0,0.0195,0.0155,0.0199,0.0149,0.0136,0.0198,0.0176,0.0189,0.0211,0.0202,0.0227,0.0215,0.0266,0.0267,0.0246,0.0269,0.022,0.0278,0.0258,0.0257,0.0248,0.0113,0.0078,-0.0019,0.0164,0.0162,0.016,0,0.0073,0.0078,0.0027,0.0057,0.0053,0.0032,0.0036,0.0028,0.0044,0.0062,0.0065,0.0105,0.008,0.0136,0.0102,0.014,0.0136,0.0146,0.0144,0.0139,0.02,0.0101,-0.0048,-0.0065,0.0141,0.0143,0.0144,0,-0.0045,-0.0051,-0.0082,-0.0077,-0.0042,-0.0059,-0.0045,-0.0026,-0.0029,-0.0025,-0.0026,-0.0026,-0.0027,-0.0028,0.001,0.0048,-0.0031,0.0029,-0.0019,-0.0021,-0.0043,-0.0043,-0.0199,-0.0038,-0.0038,-0.0038,-0.0038,0,-0.0163,-0.0198,-0.0135,-0.0155,-0.0192,-0.0141,-0.0179,-0.0159,-0.0143,-0.0159,-0.0104,-0.0121,-0.0068,-0.008,-0.005,-0.0084,-0.0084,-0.0072,-0.0065,-0.008,-0.0082,-0.0086,-0.008,-0.0042,-0.0041,-0.004,-0.0039,0,-0.0303,-0.0262,-0.0293,-0.0256,-0.0248,-0.0277,-0.0247,-0.0265,-0.0237,-0.0258,-0.026,-0.0218,-0.0229,-0.019,-0.0194,-0.0174,-0.0226,-0.0205,-0.0232,-0.0227,-0.0279,-0.0277,-0.0448,-0.0469,-0.0291,-0.0293,-0.0294,0,-0.0384,-0.0409,-0.0374,-0.038,-0.0369,-0.0379,-0.0381,-0.0331,-0.0335,-0.0318,-0.0339,-0.0344,-0.0347,-0.0367,-0.0338,-0.0341,-0.0323,-0.0382,-0.0324,-0.0338,-0.0329,-0.0329,-0.0333,-0.0396,-0.0399,-0.04,-0.0402,0,-0.0532,-0.051,-0.0513,-0.051,-0.0513,-0.0508,-0.05,-0.0508,-0.0454,-0.0462,-0.0471,-0.0472,-0.0476,-0.0484,-0.048,-0.0468,-0.0428,-0.0419,-0.0432,-0.045,-0.0466,-0.0462,-0.027,-0.0417,-0.0416,-0.0415,-0.0414,-0.0413,-0.0647,-0.0667,-0.0646,-0.0652,-0.0639,-0.0633,-0.0648,-0.0621,-0.0628,-0.0626,-0.0595,-0.0611,-0.0595,-0.0586,-0.0577,-0.059,-0.0563,-0.058,-0.0585,-0.0591,-0.0601,-0.0459,-0.0589,-0.0588,-0.0588,-0.0588,-0.0587,0,-0.0796,-0.0778,-0.0784,-0.0773,-0.0778,-0.0735,-0.0723,-0.0732,-0.0746,-0.0732,-0.0735,-0.0746,-0.0753,-0.0723,-0.0726,-0.0742,-0.0724,-0.0745,-0.0746,-0.0744,-0.0624,-0.0615,-0.076,-0.076,-0.076,-0.076,-0.076,-0.076,-0.0874,-0.0906,-0.0882,-0.0907,-0.0889,-0.0904,-0.0901,-0.0895,-0.0884,-0.0899,-0.0903,-0.0883,-0.0864,-0.0864,-0.0869,-0.086,-0.0866,-0.0894,-0.088,-0.0769,-0.0753,-0.0737,-0.0728,-0.0895,-0.0895,-0.1,-0.1001,-0.1001]}]]